Theta_e
336 336 336 336 335 330 329 327 325 322 321 321 321 321 321 321 319 318 317 316 314 313 315 316 316 316 317 317 317 317 315 314 315 316 315 315 314 313 312 311 311 310 309
334 332 330 330 329 328 325 322 321 321 321 321 322 321 320 319 317 316 315 312 309 307 306 309 310 310 310 307 307 310 312 313 313 314 314 312 311 312 311 311 311 310 310
331 329 328 327 327 325 322 322 322 321 321 320 319 318 318 317 316 315 313 311 308 306 306 306 306 305 305 305 304 308 310 312 312 313 311 311 310 310 309 307 306 306 306
328 327 326 326 325 324 323 322 322 321 320 319 319 318 317 314 313 314 313 311 307 304 306 308 308 308 308 307 306 306 306 307 307 307 307 306 306 305 306 306 306 306 306
325 324 325 324 324 322 321 319 316 315 314 313 314 313 308 306 308 310 308 305 304 302 303 307 308 308 308 307 306 306 306 306 306 305 305 306 306 306 306 306 306 305 306
324 323 323 322 321 320 316 314 314 313 310 306 306 305 305 306 306 306 308 307 306 302 302 307 308 308 307 307 307 306 306 306 306 307 306 306 306 306 306 306 306 306 306
323 323 322 322 320 318 314 315 313 309 304 304 306 306 308 309 309 309 309 308 307 306 305 305 304 304 305 306 306 306 306 306 307 306 306 306 306 306 307 306 307 307 306
323 323 322 322 320 315 315 313 309 304 304 306 308 309 309 309 309 310 310 308 307 306 306 306 305 305 305 306 306 306 306 306 307 306 306 306 306 307 306 306 307 306 306
323 324 323 321 316 315 314 312 307 304 304 305 306 306 307 308 307 307 310 308 308 306 306 306 306 306 305 305 304 305 305 306 306 306 306 306 306 306 306 306 306 306 306
324 324 320 315 316 316 314 312 308 304 304 305 308 308 308 308 308 307 306 309 309 307 306 306 306 306 305 305 305 305 305 305 305 305 305 306 306 306 306 306 305 306 305
319 317 317 318 316 315 313 311 308 305 307 308 309 309 308 308 308 308 307 306 307 308 307 306 306 306 306 305 305 305 305 305 306 306 305 305 305 306 306 306 306 305 306
318 319 319 316 314 314 312 310 309 308 307 309 309 309 310 309 308 308 307 307 306 306 306 306 306 306 305 305 304 305 305 305 306 305 305 305 305 306 306 305 304 304 305
318 315 312 310 310 308 308 310 310 310 309 309 309 310 311 311 311 309 307 307 306 306 305 306 305 305 305 305 305 304 304 305 306 305 305 305 306 306 306 305 305 304 304
315 313 312 311 312 311 311 313 310 310 309 310 309 308 308 310 312 310 308 308 306 304 304 305 305 305 304 304 304 304 304 305 305 305 305 306 306 306 306 305 305 304 304
315 314 313 313 312 311 311 311 311 309 308 307 308 308 307 306 308 309 308 305 304 305 305 305 304 304 304 304 304 304 304 304 305 304 304 305 306 306 306 305 305 305 305
315 314 313 312 310 310 309 309 308 308 309 309 309 308 305 306 303 302 303 304 304 305 305 304 304 304 304 304 303 303 303 304 304 304 303 305 306 306 306 306 306 306 305
316 314 314 313 311 310 309 309 309 309 310 309 309 308 305 306 303 304 304 305 305 304 304 304 304 304 304 303 303 303 303 303 303 304 304 305 306 306 307 307 306 306 306
317 316 314 314 312 310 310 310 309 309 309 309 310 309 307 305 305 304 305 304 304 304 304 304 304 304 303 303 303 302 303 303 303 303 303 304 306 306 306 306 307 305 306
317 316 314 314 312 312 311 310 310 310 310 310 310 310 309 306 305 305 304 304 303 304 304 304 304 304 304 303 303 302 302 303 303 302 303 304 305 305 305 306 306 305 306
317 317 314 312 311 311 311 310 310 310 310 310 309 307 305 303 306 306 305 304 304 304 304 304 304 304 304 304 302 302 301 302 302 302 305 305 304 304 304 304 304 303 303
317 315 312 312 312 310 310 310 310 310 309 306 306 304 305 304 304 304 303 304 304 304 304 304 304 304 303 303 302 301 300 300 301 302 305 304 304 305 304 304 304 304 303
314 313 312 312 311 310 311 310 310 308 306 305 305 305 305 305 305 304 304 304 304 304 304 303 303 303 301 300 301 298 295 299 301 302 304 304 303 303 304 303 304 304 303
311 312 312 311 311 311 311 311 308 306 305 305 305 305 305 305 305 305 304 304 304 304 303 303 302 300 298 298 297 297 297 300 302 304 304 303 303 303 303 303 302 302 301
312 311 311 310 311 311 311 309 307 305 305 305 305 305 305 305 304 304 304 304 304 304 303 302 301 299 299 298 297 298 299 301 303 303 303 303 303 302 302 301 301 301 302
312 311 311 312 312 310 308 306 306 305 304 305 304 304 304 304 304 303 304 303 303 303 302 302 301 299 298 297 295 297 299 301 303 303 303 303 302 302 301 301 300 300 300
312 312 310 311 311 309 307 307 307 306 305 305 305 305 305 304 304 303 303 303 303 302 302 301 301 299 298 297 295 295 298 301 302 302 301 301 301 301 300 301 300 300 300
Wind_Speed
9 10 9 10 10 11 11 12 12 12 10 9 9 9 10 11 11 10 11 12 13 9 7 9 8 7 8 8 8 7 5 5 5 6 5 5 5 4 5 7 10 12 12
13 15 16 15 12 11 12 13 10 9 9 8 8 8 7 9 10 11 13 14 14 12 10 8 9 9 9 8 7 7 6 4 3 3 4 3 6 9 9 10 13 12 13
19 17 15 13 9 10 11 11 10 8 8 7 6 6 7 8 10 11 13 14 15 14 11 11 12 11 12 13 10 7 8 8 6 3 3 4 7 10 11 13 14 13 11
17 15 14 13 10 10 10 9 8 6 5 4 5 7 7 8 9 11 12 12 13 12 10 11 12 13 14 15 14 14 11 7 6 5 5 6 8 10 11 12 14 13 10
14 10 11 12 10 9 8 7 6 4 4 6 6 7 8 8 11 11 12 16 16 12 11 11 12 11 11 12 13 14 16 17 17 13 11 13 13 14 17 17 15 18 18
11 11 11 9 8 8 7 7 4 5 6 6 7 9 13 16 17 18 16 18 18 17 14 12 10 10 11 10 11 12 13 14 16 17 13 13 14 15 16 18 17 22 23
11 9 7 8 9 9 7 3 5 6 8 10 11 13 13 13 11 12 12 14 18 18 18 19 16 14 12 11 12 12 13 13 13 15 16 16 14 14 15 17 16 17 18
11 10 10 10 9 6 2 4 5 8 8 10 10 9 10 11 10 7 9 10 14 16 15 16 18 17 14 10 8 9 11 12 12 15 15 15 15 15 14 17 16 15 14
10 12 12 9 8 5 5 6 7 7 8 8 9 9 9 11 11 5 2 4 8 11 11 12 14 15 13 14 12 9 10 9 11 11 13 13 13 12 15 16 16 15 17
12 13 13 10 8 6 5 7 9 8 9 9 10 9 8 9 9 8 8 5 6 4 8 9 10 12 11 12 13 9 9 10 9 8 10 12 12 13 14 16 18 16 16
16 15 13 11 7 5 6 7 8 9 9 8 5 3 4 8 7 6 8 6 6 6 5 7 7 11 7 11 9 8 9 11 11 11 11 12 10 10 13 14 17 16 12
16 14 14 9 7 8 7 10 9 7 5 2 4 4 5 8 7 7 7 8 7 5 5 5 5 7 6 9 9 8 9 14 11 12 10 15 12 11 14 15 18 16 14
19 16 12 10 10 11 13 9 4 2 0 2 5 7 9 12 12 11 9 9 9 8 6 2 4 3 4 6 7 8 10 13 11 12 10 13 14 12 12 14 18 17 12
20 16 14 14 12 9 5 3 2 1 2 5 7 7 7 11 15 15 12 13 10 5 0 1 1 2 3 5 7 10 10 10 11 11 10 10 12 12 12 14 19 23 17
19 14 13 12 8 5 4 3 4 4 3 3 3 5 8 9 14 17 16 9 2 4 2 1 2 2 3 5 6 8 8 9 10 11 11 10 13 13 11 13 16 19 21
19 15 12 11 9 6 6 6 5 5 3 4 3 7 8 12 8 1 2 3 4 6 1 2 3 1 4 4 7 8 8 9 9 10 11 11 13 13 12 13 14 16 19
19 15 13 11 9 5 3 4 2 3 5 4 4 5 7 10 6 4 5 6 5 2 1 0 3 3 2 5 8 9 9 9 9 10 9 10 12 13 13 13 14 14 16
19 16 13 12 8 6 6 5 5 4 2 5 5 5 6 4 5 1 2 2 3 3 5 6 2 2 4 7 12 9 8 8 13 12 6 8 10 14 15 12 13 16 16
20 19 14 13 11 8 7 6 4 4 7 8 7 8 9 7 4 2 1 1 1 6 6 4 3 5 7 9 12 9 8 8 8 8 4 5 9 11 15 12 12 13 18
19 17 15 13 10 9 8 8 10 7 7 7 7 9 9 5 5 6 4 1 4 6 3 7 9 7 7 11 10 8 9 8 8 8 2 4 6 9 11 13 14 17 18
18 19 17 13 9 7 9 8 7 8 7 5 3 1 1 2 3 2 1 7 6 2 4 5 5 7 11 13 9 10 11 10 6 5 1 4 7 10 12 10 10 11 14
18 16 14 12 10 11 8 7 8 6 5 4 2 1 2 2 1 3 3 3 2 4 6 7 8 10 11 9 9 12 10 5 4 5 2 5 8 10 11 10 11 12 15
12 12 16 14 10 9 10 12 9 5 5 3 4 2 1 1 2 2 0 1 2 4 6 6 9 10 8 9 9 9 7 2 3 2 3 4 7 9 10 10 11 12 11
16 13 12 10 13 14 14 13 10 6 7 5 4 5 6 4 1 1 2 2 3 4 6 6 9 8 9 9 9 8 5 2 2 3 4 7 10 11 9 9 13 14 11
10 12 12 15 12 9 12 10 8 5 7 7 4 5 4 5 3 1 2 3 4 4 5 5 7 8 8 9 8 7 4 2 3 6 7 10 11 12 9 10 11 12 14
18 12 10 11 12 7 12 11 11 9 7 6 6 2 3 4 4 4 3 4 5 7 6 5 6 7 7 8 8 7 5 5 5 7 8 10 14 15 12 11 10 9 12
Wind_Direction
128 113 110 110 115 115 113 113 114 111 103 94 86 81 77 76 62 34 26 17 6 10 8 359 6 25 25 27 27 42 64 75 100 82 70 52 21 7 346 343 341 340 340
114 113 109 111 112 116 117 112 107 98 95 81 76 74 69 54 39 27 23 29 37 39 38 24 36 18 11 20 13 11 13 24 45 132 96 16 349 335 337 327 321 315 311
119 114 114 113 109 110 111 107 104 90 83 79 71 50 45 49 31 33 39 45 43 39 51 48 48 36 43 45 49 65 70 81 80 90 62 4 331 310 313 323 328 323 315
125 121 125 122 120 111 109 100 84 75 59 41 45 63 66 49 41 41 42 38 37 42 55 56 55 49 49 46 50 62 61 59 53 37 31 21 18 21 26 26 23 16 359
112 112 124 126 125 119 107 95 100 115 95 62 45 66 75 69 64 57 52 60 49 50 56 56 57 53 46 44 49 64 65 59 52 48 52 46 43 32 27 21 19 19 21
115 109 106 130 126 131 130 127 77 49 58 73 74 80 88 82 76 75 66 57 50 52 55 51 42 38 38 39 42 52 48 42 36 33 33 32 27 25 23 20 15 12 12
136 117 109 151 154 147 138 71 69 88 101 100 92 93 87 83 72 63 54 52 47 51 56 54 48 47 54 57 61 55 44 34 25 34 32 25 15 6 5 4 1 3 3
152 150 165 161 162 148 65 47 85 106 107 104 105 92 81 66 52 39 48 39 40 43 49 51 51 50 48 39 47 51 46 25 23 20 19 11 7 11 6 355 3 2 6
173 171 167 172 165 160 119 90 98 120 119 110 104 92 82 75 62 45 25 31 20 29 48 44 44 34 27 25 24 35 34 23 11 10 359 8 10 3 0 7 0 359 3
182 175 166 172 173 155 117 104 116 123 118 115 111 101 75 45 43 54 47 340 315 345 6 8 35 18 11 10 3 35 30 20 9 357 346 354 2 6 3 6 6 3 2
166 168 171 164 162 153 139 118 116 127 127 132 124 53 26 0 347 4 20 17 338 322 311 333 20 4 20 18 43 33 18 6 0 353 354 356 358 7 8 3 0 356 350
170 164 156 162 162 157 146 135 124 125 155 134 273 268 301 315 303 323 334 349 349 347 320 325 358 356 16 24 19 26 8 3 4 3 6 12 15 12 13 14 6 0 350
152 147 149 146 146 148 151 142 104 129 47 311 291 285 271 280 294 299 301 322 320 313 315 5 0 29 11 4 12 11 352 352 1 7 15 16 14 17 14 20 20 16 14
151 141 138 135 131 132 166 190 128 224 295 297 311 304 301 289 279 282 286 307 307 307 204 329 290 319 357 351 357 0 358 355 0 5 17 17 17 14 10 15 21 21 27
158 143 152 147 144 166 191 209 237 282 281 267 281 323 325 309 282 277 284 287 233 142 141 197 330 292 318 337 345 352 355 347 355 4 5 1 10 14 19 18 17 17 19
166 161 157 148 161 172 199 230 210 232 270 306 311 341 351 350 346 331 150 148 147 150 188 271 290 11 3 355 352 346 342 348 350 349 356 3 8 9 14 11 8 13 14
180 175 180 180 180 171 212 182 215 299 298 309 312 322 349 3 33 90 110 132 143 155 244 301 137 338 329 343 336 326 326 325 337 341 355 1 6 9 8 3 3 8 10
203 191 196 194 199 198 216 209 223 265 302 282 284 291 307 349 40 56 211 209 231 266 228 184 349 312 297 305 330 345 314 305 313 322 318 351 1 8 4 5 16 8 359
196 202 204 202 199 223 217 230 198 221 269 273 286 290 286 280 268 278 45 20 318 190 176 183 278 254 287 323 335 341 338 336 344 344 328 349 352 3 14 22 16 7 9
203 207 205 194 207 219 207 219 223 262 275 281 285 294 289 257 266 264 253 197 165 170 230 264 271 268 306 335 336 325 331 324 329 340 349 347 355 4 359 2 13 19 18
202 186 189 194 220 200 200 243 252 257 258 254 285 353 133 109 40 134 145 149 161 250 324 341 330 322 327 333 334 324 323 325 315 325 271 327 335 346 350 356 358 5 10
184 191 196 206 201 196 233 245 256 243 244 252 283 56 126 134 74 90 157 167 235 311 327 337 337 329 330 331 323 324 330 320 322 323 275 320 342 343 351 357 356 354 5
189 201 195 190 208 220 237 247 241 236 250 256 274 285 283 231 239 229 29 225 300 331 353 347 340 337 341 341 339 340 338 319 328 336 313 334 333 323 340 344 354 352 1
195 179 190 207 220 239 241 233 234 236 243 246 280 277 264 267 271 244 265 265 297 303 339 342 343 342 346 346 345 345 344 294 307 329 328 330 332 328 327 345 350 353 337
200 205 226 222 231 250 239 217 219 239 236 240 265 270 242 217 231 343 283 289 300 312 325 334 334 338 342 346 347 344 329 280 296 326 329 330 335 335 324 331 337 349 353
215 215 221 228 222 241 225 234 243 245 251 242 238 266 257 241 245 264 313 324 303 316 297 306 322 329 333 340 343 342 328 285 290 316 329 326 332 333 329 321 321 335 347